Location: Sunset Hills
(34.4956°N, 117.2223°W)
Time: 01:26:03
(UTC+00:00)

Cosmos 1125 Rocket - Pass Details

Date: 03 August 2024
Orbit: 756 x 776 km, 74.0° (Epoch: 11 September)

Event Time Altitude Azimuth Distance (km) Brightness Sun altitude
Rises 12:29:22 0° 333° (NNW) 3,224 6.7 -6.8°
Reaches altitude 10° 12:31:52 10° 326° (NW) 2,292 5.9 -6.4°
Maximum altitude 12:36:39 38° 259° (W) 1,140 4.0 -5.5°
Drops below altitude 10° 12:41:23 10° 192° (SSW) 2,273 5.6 -4.6°
Sets 12:43:52 0° 184° (S) 3,193 6.4 -4.1°
